AirNav   Bose Proflight Series 2 Wireless viation Headset
 
 1361 users online  

34R Hallettsville Municipal Airport
Hallettsville, Texas, USA

GOING TO HALLETTSVILLE?


FAA INFORMATION EFFECTIVE 10 OCTOBER 2019

Location

FAA Identifier: 34R
Lat/Long: 29-23-23.8500N 096-57-21.8150W
29-23.397500N 096-57.363583W
29.3899583,-96.9560597
(estimated)
Elevation: 277.7 ft. / 84.6 m (surveyed)
Variation: 07E (1985)
From city: 3 miles S of HALLETTSVILLE, TX
Time zone: UTC -5 (UTC -6 during Standard Time)
Zip code: 77964

Airport Operations

Airport use: Open to the public
Activation date: 03/1967
Control tower: no
ARTCC: HOUSTON CENTER
FSS: MONTGOMERY COUNTY FLIGHT SERVICE STATION
FOR FP FILING CALL CXO FSS 1-800-833-5602
NOTAMs facility: CXO (NOTAM-D service available)
Attendance: UNATNDD
Wind indicator: lighted
Segmented circle: yes
Lights: DUSK-DAWN. MIRL RY 17/35 PRESET LOW INTST; TO INCR INTST ACTVT - CTAF.
Beacon: white-green (lighted land airport)
Operates sunset to sunrise.

Airport Communications

CTAF: 122.9

Nearby radio navigation aids

VOR radial/distance  VOR name  Freq  Var
VCTr356/29.4VICTORIA VOR/DME109.0006E
ELAr236/37.1EAGLE LAKE VOR/DME116.4008E
IDUr203/39.7INDUSTRY VORTAC110.2008E

Airport Services

Fuel available: 100LL
24 HR SELF-SERVE CREDIT CARD OPN FOR FUEL.
Parking: tiedowns
Bottled oxygen: NONE
Bulk oxygen: NONE

Runway Information

Runway 17/35

Dimensions: 3210 x 60 ft. / 978 x 18 m
Surface: asphalt, in fair condition
Weight bearing capacity: 
Single wheel: 7.0
Runway edge lights: medium intensity
RUNWAY 17  RUNWAY 35
Latitude: 29-23.662333N29-23.132667N
Longitude: 096-57.368833W096-57.358333W
Elevation: 277.7 ft.262.4 ft.
Traffic pattern: leftleft
Runway heading: 172 magnetic, 179 true352 magnetic, 359 true
Markings: basic, in fair conditionbasic, in fair condition
Touchdown point: yes, no lightsyes, no lights
Obstructions: 42 ft. trees, 731 ft. from runway, 169 ft. right of centerline, 12:1 slope to clear25 ft. trees, 406 ft. from runway, 64 ft. right of centerline, 8:1 slope to clear

Airport Ownership and Management from official FAA records

Ownership: Publicly-owned
Owner: CITY OF HALLETTSVILLE
101 N MAIN
HALLETTSVILLE, TX 77964
Phone 361-798-3681
Manager: OTTO CERVEWKA
101 N MAIN
HALLETTSVILLE, TX 77964
Phone 361-798-2201
DIRECTOR OF PUBLIC WORKS.

Airport Operational Statistics

Aircraft based on the field: 7
Single engine airplanes: 7
    
Aircraft operations: avg 40/week *
67% local general aviation
33% transient general aviation
* for 12-month period ending 25 January 2017

Additional Remarks

FOR CD CTC HOUSTON ARTCC AT 281-230-5622.

Instrument Procedures

There are no published instrument procedures at 34R.

Some nearby airports with instrument procedures:

T85 - Yoakum Municipal Airport (11 nm SW)
26R - Jackson County Airport (30 nm SE)
3T5 - Fayette Regional Air Center Airport (31 nm N)
KVCT - Victoria Regional Airport (32 nm S)
KELA - Eagle Lake Airport (35 nm E)
 
Loc | Ops | Rwys | IFR | FBO | Links
Com | Nav | Svcs | Stats | Notes
Area around 34R (Hallettsville Municipal Airport)
 
Road maps at: MapQuest Bing Google
 
Aerial photo
WARNING: Photo may not be current or correct
Aerial photo of 34R (Hallettsville Municipal Airport)
Do you have a better or more recent aerial photo of Hallettsville Municipal Airport that you would like to share? If so, please send us your photo.

 
Sectional chart

 
Airport distance calculator
Flying to Hallettsville Municipal Airport? Find the distance to fly.

From to 34R

Sunrise and sunset
Times for 16-Oct-2019
 Local
(UTC-5)
 Zulu
(UTC)
Morning civil twilight07:0712:07
Sunrise07:3112:31
Sunset18:5623:56
Evening civil twilight19:2000:20

Current date and time
Zulu (UTC)  16-Oct-2019 14:36:07
Local (UTC-5)  16-Oct-2019 09:36:07
 
METAR
K66R 
27nm NE 
161415Z AUTO 35009G15KT 10SM RA OVC014 17/15 A3006 RMK AO2 LTG DSNT E THRU S P0003 T01710145
KT20 
28nm W 
161415Z AUTO 01012G18KT 10SM -DZ OVC020 16/14 A3007 RMK AO2 T01560139
K3T5 
31nm N 
161415Z AUTO 35009KT 10SM -RA BKN019 BKN031 OVC120 16/14 A3006 RMK AO2 P0002 T01620138
KVCT 
31nm S 
161357Z 36009KT 3SM RA BR FEW005 BKN010 22/21 A2999 RMK AO2 LTG DSNT E AND SE P0003 T02220211
KELA 
35nm E 
161415Z AUTO 35010G17KT 7SM +RA OVC007 20/19 A3005 RMK AO2 LTG DSNT SE AND S P0003 T02000190
KARM 
43nm E 
161415Z AUTO 33011KT 3SM +VCTSRA BKN006 OVC012 23/21 A3002 RMK AO2 LTG DSNT ALQDS P0008 T02250210
KPKV 
46nm S 
161415Z AUTO 01006KT 5SM RA SCT019 BKN033 OVC040 24/23 A3001 RMK AO2 P0005 T02370227
KGYB 
47nm N 
161415Z AUTO 35006KT 10SM -RA OVC020 16/12 A3012 RMK AO2 T01630124
TAF
KVCT 
31nm S 
161128Z 1612/1712 35011KT P6SM -RA BKN020 OVC050 TEMPO 1612/1615 2SM TSRA OVC015CB FM161500 36014G22KT P6SM VCSH OVC020 FM170000 36008KT P6SM OVC025
NOTAMs
Click for the latest NOTAMs
NOTAMs are issued by the DoD/FAA and will open in a separate window not controlled by AirNav.

 

 
 

FBO, Fuel Providers, and Aircraft Ground Support

  
 Business Name 
 
 Contact 
 
 Services / Description 
 
Fuel Prices
 
Comments
  
Hallettsville Municipal Airport 361-798-3681
no information available

If you are affiliated with Hallettsville Municipal Airport and would like to show here your services, contact info, web link, logo, and more, click here
100LL
SS $4.20 
 Updated 15-Oct-2019
 
   2 read write
SS=Self service
Update Fuel Prices
 

Would you like to see your business listed on this page?

 If your business provides an interesting product or service to pilots, flight crews, aircraft, or users of the Hallettsville Municipal Airport, you should consider listing it here.  To start the listing process, click on the button below
 
Add a business
 

Other Pages about Hallettsville Municipal Airport

Update a link
 
Copyright © AirNav, LLC. All rights reserved. Privacy Policy  Contact